M I D A S
Marine Information and Data Acquisition System
Tripno 367 of the Zeeleeuw from 2002-12-11 07:54:24 to 2002-12-11 13:24:04
Back to CruiseResearch ActivitiesStationsMapUnderway DataData graphs

EquipmentUnitsComments
TimeDGPSUTC
LatitudeDGPSDM.mWGS84
LongitudeDGPSDM.mWGS84
SpeedMeteo Stationm/sRelative wind speed
DirectionMeteo StationdegRelative wind direction
TemperatureMeteo Stationdeg CelciusAir temperature
PressureMeteo StationPaAtmospheric pressure
HumidityMeteo Station%Relative humidity
Missing or incorrect values are displayed as -999
Metereological data collected by the RV Zeeleeuw from 2002-12-11 07:54:24 to 2002-12-11 13:24:04
Time Latitude Longitude Speed Direction Temperature Pressure Humidity
2002-12-11 07:55 51°13.588 2°56.129 6.4 257 -5.6 102100 78
2002-12-11 07:56 51°13.586 2°56.128 7.2 279 -5.7 102100 78
2002-12-11 07:57 51°13.55 2°56.171 8.8 273 -5.6 102080 78
2002-12-11 07:58 51°13.529 2°56.241 7.3 214 -5.6 102090 80
2002-12-11 07:59 51°13.539 2°56.277 6.1 189 -5.5 102100 80
2002-12-11 08:00 51°13.529 2°56.252 7 167 -5.5 102100 80
2002-12-11 08:01 51°13.538 2°56.247 4.9 132 -5.4 102100 79
2002-12-11 08:02 51°13.521 2°56.246 5 138 -5.4 102100 80
2002-12-11 08:03 51°13.51 2°56.241 5.1 129 -5.3 102100 80
2002-12-11 08:04 51°13.536 2°56.187 3.3 108 -5.3 102100 80
2002-12-11 08:05 51°13.589 2°56.073 2.8 150 -5.3 102100 80
2002-12-11 08:06 51°13.639 2°55.955 2.9 90 -5.3 102100 78
2002-12-11 08:07 51°13.695 2°55.812 3.5 157 -5.4 102100 77
2002-12-11 08:08 51°13.764 2°55.693 3.5 143 -5.4 102110 77
2002-12-11 08:09 51°13.859 2°55.621 3.4 177 -5.5 102100 76
2002-12-11 08:10 51°13.959 2°55.558 6.2 138 -5.4 102100 78
2002-12-11 08:11 51°14.057 2°55.471 4.6 129 -5.5 102100 77
2002-12-11 08:12 51°14.178 2°55.367 5.5 162 -5.4 102090 78
2002-12-11 08:13 51°14.297 2°55.185 4.7 149 -5.5 102100 78
2002-12-11 08:14 51°14.418 2°54.953 8.5 168 -5.4 102100 79
2002-12-11 08:15 51°14.61 2°54.753 8.1 165 -5.3 102080 80
2002-12-11 08:16 51°14.794 2°54.568 10.5 154 -5.2 102070 79
2002-12-11 08:17 51°14.99 2°54.376 10.2 171 -5 102080 80
2002-12-11 08:18 51°15.179 2°54.187 8.8 151 -4.9 102080 80
2002-12-11 08:19 51°15.373 2°53.988 8.6 149 -4.7 102070 81
2002-12-11 08:20 51°15.573 2°53.786 9.3 139 -4.6 102070 81
2002-12-11 08:21 51°15.768 2°53.589 10.2 151 -4.5 102070 81
2002-12-11 08:22 51°15.964 2°53.391 9.5 136 -4.4 102070 80
2002-12-11 08:23 51°16.157 2°53.197 11.3 150 -4.4 102070 81
2002-12-11 08:24 51°16.351 2°53.001 9.8 139 -4.2 102070 81
2002-12-11 08:25 51°16.55 2°52.802 12.5 143 -4.2 102080 81
2002-12-11 08:26 51°16.748 2°52.623 9.9 144 -4.2 102070 81
2002-12-11 08:27 51°16.968 2°52.5 14.4 176 -4.1 102060 81
2002-12-11 08:28 51°17.184 2°52.405 14.6 166 -4.1 102030 80
2002-12-11 08:29 51°17.413 2°52.317 15 176 -4.1 102040 79
2002-12-11 08:30 51°17.637 2°52.229 14.8 166 -4 102070 80
2002-12-11 08:31 51°17.862 2°52.164 15 176 -4 102060 80
2002-12-11 08:32 51°18.091 2°52.13 17.1 172 -3.9 102050 81
2002-12-11 08:33 51°18.304 2°52.222 16.2 201 -3.8 102030 84
2002-12-11 08:34 51°18.46 2°52.473 19.7 210 -4 102030 84
2002-12-11 08:35 51°18.592 2°52.748 18 215 -4.1 102020 85
2002-12-11 08:36 51°18.706 2°53.031 22.3 220 -4.2 102040 85
2002-12-11 08:37 51°18.826 2°53.324 20.6 218 -4.2 102030 85
2002-12-11 08:38 51°18.942 2°53.61 19.7 216 -4.1 102010 85
2002-12-11 08:39 51°19.055 2°53.905 20.6 223 -4 102040 86
2002-12-11 08:40 51°19.167 2°54.192 20 215 -3.9 102030 85
2002-12-11 08:41 51°19.285 2°54.487 20.6 214 -4 102030 84
2002-12-11 08:42 51°19.399 2°54.771 18.5 215 -4 102040 85
2002-12-11 08:43 51°19.518 2°55.066 18.1 208 -3.8 102040 85
2002-12-11 08:44 51°19.635 2°55.358 19.5 217 -3.7 102030 85
2002-12-11 08:45 51°19.756 2°55.653 20.3 213 -3.8 102040 84
2002-12-11 08:46 51°19.869 2°55.934 21 213 -3.7 102040 85
2002-12-11 08:47 51°19.987 2°56.221 19.6 217 -3.8 102050 83
2002-12-11 08:48 51°20.104 2°56.507 19 221 -3.9 102030 82
2002-12-11 08:49 51°20.165 2°56.831 21.2 224 -3.8 102050 82
2002-12-11 08:50 51°20.231 2°57.156 21.3 224 -3.9 102030 82
2002-12-11 08:51 51°20.296 2°57.485 20.7 222 -3.9 102030 80
2002-12-11 08:52 51°20.362 2°57.809 19 225 -3.9 102050 80
2002-12-11 08:53 51°20.428 2°58.132 19.1 222 -3.8 102040 80
2002-12-11 08:54 51°20.493 2°58.452 18.6 233 -3.7 102040 80
2002-12-11 08:55 51°20.559 2°58.77 20.4 224 -3.8 102020 79
2002-12-11 08:56 51°20.623 2°59.085 21.7 228 -3.8 102040 79
2002-12-11 08:57 51°20.69 2°59.416 21.7 229 -3.7 102050 79
2002-12-11 08:58 51°20.754 2°59.726 19.4 223 -3.7 102050 79
2002-12-11 08:59 51°20.822 3°0.056 20.8 228 -3.6 102080 79
2002-12-11 09:00 51°20.885 3°0.368 20.1 218 -3.7 102040 78
2002-12-11 09:01 51°20.95 3°0.687 20 227 -3.7 102060 78
2002-12-11 09:02 51°21.015 3°1.004 18.9 220 -3.8 102080 76
2002-12-11 09:03 51°21.081 3°1.32 20 221 -3.8 102070 77
2002-12-11 09:04 51°21.146 3°1.639 20.4 221 -3.6 102080 79
2002-12-11 09:05 51°21.212 3°1.955 22.1 222 -3.7 102070 77
2002-12-11 09:06 51°21.276 3°2.268 20.1 224 -3.6 102060 77
2002-12-11 09:07 51°21.341 3°2.577 18.2 217 -3.7 102050 76
2002-12-11 09:08 51°21.405 3°2.891 17.6 223 -3.6 102070 78
2002-12-11 09:09 51°21.471 3°3.207 20.2 223 -3.4 102080 79
2002-12-11 09:10 51°21.537 3°3.525 18.6 223 -3.5 102080 78
2002-12-11 09:11 51°21.603 3°3.842 18.7 227 -3.5 102060 78
2002-12-11 09:12 51°21.669 3°4.165 20.2 222 -3.5 102060 77
2002-12-11 09:13 51°21.733 3°4.479 18.6 227 -3.5 102070 76
2002-12-11 09:14 51°21.8 3°4.802 18.9 219 -3.5 102050 76
2002-12-11 09:15 51°21.866 3°5.12 20.1 216 -3.5 102060 77
2002-12-11 09:16 51°21.931 3°5.432 18.6 225 -3.5 102070 77
2002-12-11 09:17 51°21.996 3°5.748 19.9 219 -3.5 102060 76
2002-12-11 09:18 51°22.062 3°6.069 19 222 -3.5 102060 76
2002-12-11 09:19 51°22.128 3°6.386 19.4 222 -3.5 102070 76
2002-12-11 09:20 51°22.194 3°6.702 18.2 221 -3.6 102090 76
2002-12-11 09:21 51°22.257 3°7.013 19.5 216 -3.4 102080 78
2002-12-11 09:22 51°22.324 3°7.332 17.1 224 -3.3 102080 78
2002-12-11 09:23 51°22.387 3°7.646 19.7 222 -3.1 102090 80
2002-12-11 09:24 51°22.452 3°7.958 19.9 218 -3.1 102080 79
2002-12-11 09:25 51°22.517 3°8.269 19.3 225 -3.3 102070 76
2002-12-11 09:26 51°22.581 3°8.58 17.5 227 -3.3 102080 77
2002-12-11 09:27 51°22.627 3°8.852 18.2 228 -3.1 102080 79
2002-12-11 09:28 51°22.645 3°8.987 16.7 228 -3.1 102110 79
2002-12-11 09:29 51°22.653 3°9.049 16.2 232 -3.2 102100 76
2002-12-11 09:30 51°22.663 3°9.099 15.4 221 -3.3 102110 77
2002-12-11 09:31 51°22.685 3°9.171 14.8 213 -3.3 102100 77
2002-12-11 09:32 51°22.693 3°9.275 15.6 235 -3.3 102120 76
2002-12-11 09:33 51°22.694 3°9.375 15.7 232 -3.3 102120 77
2002-12-11 09:34 51°22.702 3°9.448 13.6 214 -3.2 102100 77
2002-12-11 09:35 51°22.717 3°9.464 13.5 203 -3.3 102110 75
2002-12-11 09:36 51°22.731 3°9.45 12.4 200 -3.2 102120 77
2002-12-11 09:37 51°22.742 3°9.42 11 196 -3.2 102120 76
2002-12-11 09:38 51°22.751 3°9.398 13.7 225 -3.2 102140 77
2002-12-11 09:39 51°22.753 3°9.382 12 232 -3.1 102120 77
2002-12-11 09:40 51°22.758 3°9.365 11.7 193 -3.1 102120 77
2002-12-11 09:41 51°22.774 3°9.342 11.4 194 -3.1 102110 77
2002-12-11 09:42 51°22.791 3°9.324 11.3 203 -3.2 102110 76
2002-12-11 09:43 51°22.806 3°9.306 13 197 -3.3 102110 75
2002-12-11 09:44 51°22.821 3°9.29 11.1 201 -3.3 102100 75
2002-12-11 09:45 51°22.836 3°9.275 13.7 199 -3.1 102100 77
2002-12-11 09:46 51°22.849 3°9.263 11.9 206 -3.2 102110 75
2002-12-11 09:47 51°22.878 3°9.257 12.9 150 -3.1 102090 76
2002-12-11 09:48 51°22.962 3°9.171 10.5 119 -3.1 102120 77
2002-12-11 09:49 51°23.078 3°8.974 9.7 125 -3 102160 77
2002-12-11 09:50 51°23.189 3°8.785 10.5 121 -2.9 102140 77
2002-12-11 09:51 51°23.307 3°8.639 9.6 122 -2.9 102130 76
2002-12-11 09:52 51°23.472 3°8.375 9.2 119 -2.8 102140 78
2002-12-11 09:53 51°23.623 3°8.044 6.5 114 -2.7 102140 77
2002-12-11 09:54 51°23.766 3°7.712 9.3 122 -2.4 102130 79
2002-12-11 09:55 51°23.907 3°7.387 8.8 119 -2.4 102140 78
2002-12-11 09:56 51°24.01 3°7.174 8.8 110 -2.3 102120 78
2002-12-11 09:57 51°24.084 3°7.043 10.7 109 -2.3 102130 78
2002-12-11 09:58 51°24.167 3°6.93 11.5 118 -2.4 102120 76
2002-12-11 09:59 51°24.252 3°6.866 11.4 184 -2.3 102110 78
2002-12-11 10:00 51°24.289 3°6.972 15.1 230 -2.3 102100 76
2002-12-11 10:01 51°24.297 3°7.031 15.3 233 -2.1 102110 79
2002-12-11 10:02 51°24.29 3°7.042 13.6 246 -2.2 102090 77
2002-12-11 10:03 51°24.28 3°7.044 12.6 245 -2.1 102090 78
2002-12-11 10:04 51°24.274 3°7.045 13.7 235 -2.1 102110 78
2002-12-11 10:05 51°24.274 3°7.047 13.2 233 -2.1 102110 76
2002-12-11 10:06 51°24.281 3°7.048 11.9 214 -2.1 102130 78
2002-12-11 10:07 51°24.3 3°7.038 9.3 187 -2.2 102110 77
2002-12-11 10:08 51°24.33 3°7.015 9 187 -2.1 102100 79
2002-12-11 10:09 51°24.351 3°6.978 10.5 183 -2.1 102110 80
2002-12-11 10:10 51°24.368 3°6.931 12.1 178 -1.9 102110 82
2002-12-11 10:11 51°24.384 3°6.88 10.7 175 -1.9 102120 81
2002-12-11 10:12 51°24.402 3°6.834 11 180 -2.1 102110 80
2002-12-11 10:13 51°24.412 3°6.777 13.9 155 -2.1 102110 81
2002-12-11 10:14 51°24.418 3°6.718 10.7 134 -2.1 102140 81
2002-12-11 10:15 51°24.423 3°6.657 12.7 134 -2 102130 82
2002-12-11 10:16 51°24.43 3°6.596 11.3 125 -2.1 102130 81
2002-12-11 10:17 51°24.448 3°6.521 12 97 -2.1 102120 81
2002-12-11 10:18 51°24.468 3°6.416 9.4 36 -2.2 102150 80
2002-12-11 10:19 51°24.467 3°6.317 9.7 4 -2.1 102180 80
2002-12-11 10:20 51°24.432 3°6.235 13.3 297 -2.1 102160 80
2002-12-11 10:21 51°24.385 3°6.222 14.4 261 -2.1 102140 80
2002-12-11 10:22 51°24.361 3°6.278 15 221 -2 102110 80
2002-12-11 10:23 51°24.364 3°6.382 17.4 231 -2 102110 80
2002-12-11 10:24 51°24.361 3°6.504 15.7 232 -2.1 102100 78
2002-12-11 10:25 51°24.346 3°6.625 15.9 230 -2.2 102110 78
2002-12-11 10:26 51°24.34 3°6.698 14.5 234 -2.2 102130 78
2002-12-11 10:27 51°24.336 3°6.733 13.4 240 -2.2 102120 77
2002-12-11 10:28 51°24.328 3°6.754 12.8 234 -2.2 102120 77
2002-12-11 10:29 51°24.319 3°6.779 13.3 245 -2.1 102110 78
2002-12-11 10:30 51°24.304 3°6.809 13.3 253 -2 102110 78
2002-12-11 10:31 51°24.27 3°6.843 13.9 255 -2 102080 77
2002-12-11 10:32 51°24.255 3°6.874 12.5 224 -2 102140 78
2002-12-11 10:33 51°24.264 3°6.884 12.5 223 -1.9 102130 77
2002-12-11 10:34 51°24.27 3°6.886 12.3 223 -1.9 102130 78
2002-12-11 10:35 51°24.276 3°6.882 13.7 222 -2 102130 76
2002-12-11 10:36 51°24.288 3°6.878 12.2 208 -2.1 102120 75
2002-12-11 10:37 51°24.303 3°6.848 10.2 196 -2.2 102110 74
2002-12-11 10:38 51°24.344 3°6.815 7.7 118 -2.1 102110 76
2002-12-11 10:39 51°24.405 3°6.662 7.4 67 -2 102150 78
2002-12-11 10:40 51°24.462 3°6.399 6.8 74 -1.9 102140 77
2002-12-11 10:41 51°24.52 3°6.125 5.7 94 -1.9 102140 77
2002-12-11 10:42 51°24.58 3°5.847 7.3 81 -1.9 102140 77
2002-12-11 10:43 51°24.614 3°5.552 6.4 59 -1.9 102140 77
2002-12-11 10:44 51°24.645 3°5.258 6.8 78 -1.9 102130 78
2002-12-11 10:45 51°24.68 3°5.035 7.7 52 -1.7 102130 79
2002-12-11 10:46 51°24.713 3°4.891 10.5 85 -1.9 102130 77
2002-12-11 10:47 51°24.747 3°4.79 10.3 110 -1.9 102120 78
2002-12-11 10:48 51°24.776 3°4.714 9.9 109 -1.9 102120 78
2002-12-11 10:49 51°24.795 3°4.655 9.6 122 -1.8 102110 78
2002-12-11 10:50 51°24.808 3°4.601 9.8 128 -1.7 102120 79
2002-12-11 10:51 51°24.818 3°4.551 11.6 124 -1.8 102120 77
2002-12-11 10:52 51°24.825 3°4.499 10.3 115 -1.7 102120 78
2002-12-11 10:53 51°24.827 3°4.446 10.9 131 -1.8 102120 76
2002-12-11 10:54 51°24.825 3°4.395 9.9 125 -1.8 102120 77
2002-12-11 10:55 51°24.822 3°4.343 10.2 111 -1.7 102120 78
2002-12-11 10:56 51°24.818 3°4.292 8.6 105 -1.8 102140 76
2002-12-11 10:57 51°24.815 3°4.24 10.7 112 -1.7 102100 79
2002-12-11 10:58 51°24.814 3°4.185 9.7 113 -1.7 102110 78
2002-12-11 10:59 51°24.814 3°4.131 9 128 -1.7 102110 78
2002-12-11 11:00 51°24.812 3°4.075 8.8 117 -1.7 102100 78
2002-12-11 11:01 51°24.812 3°4.024 10.1 134 -1.7 102110 77
2002-12-11 11:02 51°24.811 3°3.97 8.3 108 -1.5 102090 80
2002-12-11 11:03 51°24.809 3°3.917 10.4 126 -1.5 102100 79
2002-12-11 11:04 51°24.806 3°3.863 9.8 121 -1.7 102090 76
2002-12-11 11:05 51°24.801 3°3.808 12 110 -1.6 102090 77
2002-12-11 11:06 51°24.806 3°3.75 10.1 129 -1.6 102090 78
2002-12-11 11:07 51°24.865 3°3.687 11.7 142 -1.6 102080 78
2002-12-11 11:08 51°24.971 3°3.598 9.3 129 -1.6 102080 77
2002-12-11 11:09 51°25.09 3°3.453 9.2 126 -1.6 102100 78
2002-12-11 11:10 51°25.189 3°3.261 7.2 78 -1.6 102090 78
2002-12-11 11:11 51°25.234 3°3.036 10.2 51 -1.5 102110 78
2002-12-11 11:12 51°25.246 3°2.881 8.4 70 -1.6 102100 76
2002-12-11 11:13 51°25.266 3°2.784 10.5 94 -1.7 102080 75
2002-12-11 11:14 51°25.289 3°2.711 9.2 110 -1.7 102090 76
2002-12-11 11:15 51°25.307 3°2.653 10.6 119 -1.6 102100 76
2002-12-11 11:16 51°25.319 3°2.601 11 123 -1.6 102080 76
2002-12-11 11:17 51°25.328 3°2.556 10.8 125 -1.6 102080 77
2002-12-11 11:18 51°25.343 3°2.503 11.2 105 -1.5 102100 77
2002-12-11 11:19 51°25.366 3°2.427 9.4 83 -1.6 102080 75
2002-12-11 11:20 51°25.365 3°2.322 10.1 356 -1.6 102100 75
2002-12-11 11:21 51°25.316 3°2.239 3.3 297 -1.6 102090 76
2002-12-11 11:22 51°25.207 3°2.156 11 301 -1.3 102110 78
2002-12-11 11:23 51°25.054 3°2.08 11.2 305 -1.4 102090 75
2002-12-11 11:24 51°24.893 3°1.991 11.5 296 -1.4 102090 76
2002-12-11 11:25 51°24.731 3°1.949 14.7 289 -1.4 102070 76
2002-12-11 11:26 51°24.566 3°1.928 12.6 290 -1.4 102070 75
2002-12-11 11:27 51°24.405 3°1.91 14.6 290 -1.3 102070 78
2002-12-11 11:28 51°24.24 3°1.884 12.2 292 -1.3 102070 76
2002-12-11 11:29 51°24.079 3°1.852 12.8 290 -1.2 102060 76
2002-12-11 11:30 51°23.912 3°1.818 12.7 304 -1.3 102070 74
2002-12-11 11:31 51°23.753 3°1.713 8 315 -1.4 102090 72
2002-12-11 11:32 51°23.596 3°1.587 8.2 309 -1.4 102060 72
2002-12-11 11:33 51°23.441 3°1.456 10.8 306 -1.3 102070 74
2002-12-11 11:34 51°23.282 3°1.322 5.4 322 -1.4 102060 72
2002-12-11 11:35 51°23.131 3°1.2 8.6 301 -1.3 102060 73
2002-12-11 11:36 51°22.971 3°1.07 8.6 299 -1.3 102060 73
2002-12-11 11:37 51°22.816 3°0.938 4.3 339 -1.4 102050 73
2002-12-11 11:38 51°22.653 3°0.81 10.8 304 -1.4 102050 74
2002-12-11 11:39 51°22.498 3°0.684 5.3 311 -1.4 102040 72
2002-12-11 11:40 51°22.336 3°0.557 5.3 311 -1.4 102040 74
2002-12-11 11:41 51°22.179 3°0.432 7.4 325 -1.4 102030 73
2002-12-11 11:42 51°22.015 3°0.3 7.6 320 -1.3 102030 73
2002-12-11 11:43 51°21.858 3°0.172 3.9 304 -1.4 102050 72
2002-12-11 11:44 51°21.698 3°0.041 10.3 304 -1.4 102050 72
2002-12-11 11:45 51°21.536 2°59.929 13.2 301 -1.4 102050 70
2002-12-11 11:46 51°21.371 2°59.914 13.9 301 -1.4 102020 70
2002-12-11 11:47 51°21.2 2°59.919 13.1 284 -1.4 102020 71
2002-12-11 11:48 51°21.03 2°59.919 12.5 292 -1.4 102020 68
2002-12-11 11:49 51°20.874 2°59.94 13.2 282 -1.4 102020 70
2002-12-11 11:50 51°20.786 2°59.966 13.3 280 -1.3 102030 70
2002-12-11 11:51 51°20.735 2°59.971 9.8 291 -1.4 102040 67
2002-12-11 11:52 51°20.699 2°59.96 11.2 294 -1.4 102040 68
2002-12-11 11:53 51°20.668 2°59.94 11.3 292 -1.4 102030 67
2002-12-11 11:54 51°20.642 2°59.909 11.3 293 -1.4 102040 69
2002-12-11 11:55 51°20.621 2°59.877 11 296 -1.4 102030 69
2002-12-11 11:56 51°20.6 2°59.845 11.8 296 -1.5 102030 67
2002-12-11 11:57 51°20.579 2°59.81 10.2 299 -1.6 102020 67
2002-12-11 11:58 51°20.561 2°59.776 11.2 295 -1.6 102030 67
2002-12-11 11:59 51°20.54 2°59.739 11.6 296 -1.5 102020 67
2002-12-11 12:00 51°20.521 2°59.701 11.2 303 -1.6 102020 66
2002-12-11 12:01 51°20.505 2°59.665 12.5 300 -1.6 102020 70
2002-12-11 12:02 51°20.485 2°59.627 8.6 309 -1.5 102010 67
2002-12-11 12:03 51°20.463 2°59.589 9.3 305 -1.4 102010 69
2002-12-11 12:04 51°20.442 2°59.551 9.6 305 -1.4 102000 69
2002-12-11 12:05 51°20.42 2°59.517 9.5 309 -1.3 102010 68
2002-12-11 12:06 51°20.397 2°59.48 10.4 294 -1.3 102000 69
2002-12-11 12:07 51°20.374 2°59.444 12.2 298 -1.1 102000 72
2002-12-11 12:08 51°20.353 2°59.41 12.4 301 -1.1 101990 68
2002-12-11 12:09 51°20.274 2°59.4 12.1 298 -1.2 101990 68
2002-12-11 12:10 51°20.124 2°59.284 6.7 10 -1.3 102020 65
2002-12-11 12:11 51°20.055 2°59.015 5.4 41 -1.2 102020 68
2002-12-11 12:12 51°19.992 2°58.734 5.2 35 -1.2 102020 67
2002-12-11 12:13 51°19.928 2°58.439 3.6 19 -1.2 102020 66
2002-12-11 12:14 51°19.866 2°58.15 4.6 17 -1.2 102020 65
2002-12-11 12:15 51°19.804 2°57.861 4.6 20 -1.3 102030 68
2002-12-11 12:16 51°19.741 2°57.57 5.9 23 -1.2 102020 68
2002-12-11 12:17 51°19.676 2°57.281 5.8 13 -1.1 102020 70
2002-12-11 12:18 51°19.61 2°56.979 4.9 14 -1.3 102020 66
2002-12-11 12:19 51°19.546 2°56.689 5.2 28 -1.1 102020 71
2002-12-11 12:20 51°19.479 2°56.391 6.7 38 -1.2 102030 64
2002-12-11 12:21 51°19.413 2°56.095 5 20 -1.2 102030 66
2002-12-11 12:22 51°19.345 2°55.8 5.5 22 -1.2 102030 65
2002-12-11 12:23 51°19.28 2°55.511 5.7 3 -1.2 102020 69
2002-12-11 12:24 51°19.213 2°55.22 5.3 23 -1.1 102020 65
2002-12-11 12:25 51°19.144 2°54.93 6.5 20 -1.1 102030 67
2002-12-11 12:26 51°19.081 2°54.644 6.5 10 -1 102020 71
2002-12-11 12:27 51°19.012 2°54.348 4.8 32 -1.1 102030 63
2002-12-11 12:28 51°18.946 2°54.069 5.5 28 -1.1 102020 65
2002-12-11 12:29 51°18.876 2°53.773 5 2 -1.1 102010 66
2002-12-11 12:30 51°18.798 2°53.496 6.8 3 -1 102010 67
2002-12-11 12:31 51°18.715 2°53.212 7.1 356 -0.9 102000 68
2002-12-11 12:32 51°18.633 2°52.934 6.7 3 -1 102010 67
2002-12-11 12:33 51°18.542 2°52.673 6.6 8 -1 102000 65
2002-12-11 12:34 51°18.424 2°52.428 1.6 354 -1 102000 69
2002-12-11 12:35 51°18.281 2°52.229 5.7 320 -0.9 102000 69
2002-12-11 12:36 51°18.107 2°52.127 12.5 300 -0.8 101990 68
2002-12-11 12:37 51°17.928 2°52.134 14 287 -0.9 101980 67
2002-12-11 12:38 51°17.749 2°52.156 13.7 298 -0.9 101960 67
2002-12-11 12:39 51°17.566 2°52.175 14.2 283 -0.8 101970 68
2002-12-11 12:40 51°17.384 2°52.192 14 285 -0.9 101970 66
2002-12-11 12:41 51°17.213 2°52.263 15.1 271 -0.9 101960 65
2002-12-11 12:42 51°17.051 2°52.366 14.5 283 -1 101970 63
2002-12-11 12:43 51°16.888 2°52.473 13.9 272 -1.1 101980 65
2002-12-11 12:44 51°16.728 2°52.586 14 273 -1.2 101970 65
2002-12-11 12:45 51°16.598 2°52.75 16.1 262 -1.1 101950 67
2002-12-11 12:46 51°16.476 2°52.942 14.5 268 -1.2 101980 63
2002-12-11 12:47 51°16.357 2°53.129 13.5 257 -1.2 101950 67
2002-12-11 12:48 51°16.238 2°53.308 14.3 253 -1.1 101960 68
2002-12-11 12:49 51°16.109 2°53.476 14.7 254 -1.1 101960 67
2002-12-11 12:50 51°15.981 2°53.649 13.7 254 -1.1 101960 68
2002-12-11 12:51 51°15.899 2°53.845 14.2 235 -1.1 101980 65
2002-12-11 12:52 51°15.93 2°54.061 13.9 214 -1.2 101970 65
2002-12-11 12:53 51°15.976 2°54.241 11.3 212 -1.3 101980 67
2002-12-11 12:54 51°16.008 2°54.31 9.5 190 -1.3 101970 65
2002-12-11 12:55 51°16.031 2°54.33 7.2 194 -1.3 101980 69
2002-12-11 12:56 51°16.078 2°54.334 9.2 147 -1.3 101980 69
2002-12-11 12:57 51°16.122 2°54.198 6.4 49 -1.3 102000 67
2002-12-11 12:58 51°16.051 2°54.052 4.5 305 -1.2 102000 67
2002-12-11 12:59 51°15.912 2°54.029 11.6 286 -1.2 101980 66
2002-12-11 13:00 51°15.758 2°54.053 13.1 288 -1.2 101970 67
2002-12-11 13:01 51°15.612 2°54.129 13.2 281 -1.1 101970 67
2002-12-11 13:02 51°15.468 2°54.214 12.6 274 -1.1 101960 65
2002-12-11 13:03 51°15.324 2°54.301 13 275 -1.1 101960 67
2002-12-11 13:04 51°15.185 2°54.397 12.5 275 -1.1 101950 67
2002-12-11 13:05 51°15.038 2°54.494 13.1 267 -1.1 101970 66
2002-12-11 13:06 51°14.901 2°54.588 12.9 273 -1.1 101960 65
2002-12-11 13:07 51°14.759 2°54.69 11.3 274 -1.1 101950 63
2002-12-11 13:08 51°14.62 2°54.792 12 271 -1.2 101960 64
2002-12-11 13:09 51°14.488 2°54.91 11.5 258 -1.2 101960 63
2002-12-11 13:10 51°14.382 2°55.063 7.8 269 -1.2 101960 63
2002-12-11 13:11 51°14.295 2°55.212 7.2 267 -1.2 101980 63
2002-12-11 13:12 51°14.223 2°55.316 6.9 283 -1.2 101980 62
2002-12-11 13:13 51°14.15 2°55.385 6.4 274 -1.2 101980 63
2002-12-11 13:14 51°14.077 2°55.44 5.6 266 -1.2 101980 62
2002-12-11 13:15 51°14.006 2°55.495 6.9 277 -1.2 101970 62
2002-12-11 13:16 51°13.932 2°55.551 8.4 275 -1.1 101980 63
2002-12-11 13:17 51°13.859 2°55.61 3.9 241 -1.1 101990 62
2002-12-11 13:18 51°13.789 2°55.68 9 265 -1 102000 61
2002-12-11 13:19 51°13.734 2°55.759 5.3 260 -1 101980 60
2002-12-11 13:20 51°13.684 2°55.851 6.4 263 -1 101980 60
2002-12-11 13:21 51°13.649 2°55.93 7.2 281 -1 101980 61
2002-12-11 13:22 51°13.621 2°55.998 4.4 251 -1 101980 61
2002-12-11 13:23 51°13.601 2°56.061 4.6 238 -1 101980 61